Theta_e
270 270 271 270 270 269 269 270 269 270 270 270 270 270 270 271 271 271 272 271 272 272 272 272 273 273 274 274 274 274 274 274 274 273 273 272 273 273 273 274 273 274 275 275 275 275 276 277 279 281 282 281 283 286 290 291 292 292 294 294 294 295 295 295 293 293 296 299 299 300 302 307 310 315 315 315 310 312 313 319 316 314 314 316 315
270 270 270 270 269 269 269 269 269 269 269 269 269 269 270 270 270 270 270 270 271 271 271 272 272 273 273 273 273 273 273 273 273 273 272 271 271 272 272 272 273 273 274 274 274 275 276 276 276 278 280 280 281 283 288 291 291 292 293 293 293 294 296 295 294 293 293 296 297 301 302 306 307 314 315 313 310 310 316 318 316 316 316 316 315
270 270 269 269 269 269 269 268 268 268 268 268 268 268 269 269 270 269 269 270 270 271 271 271 271 272 272 272 272 271 272 272 272 272 271 271 270 271 271 272 272 272 272 272 273 274 274 274 275 276 278 279 280 283 287 290 291 291 292 293 292 294 295 297 295 294 294 294 298 299 301 304 307 311 315 314 311 314 316 316 315 316 316 316 316
270 269 269 269 269 268 268 268 268 268 267 268 267 268 268 268 269 268 269 269 269 270 271 270 271 271 270 270 270 270 270 270 270 270 270 270 270 270 271 271 272 272 272 272 272 273 272 273 274 275 277 278 280 281 285 290 291 291 291 292 293 293 295 296 296 296 295 294 296 298 301 303 307 314 316 314 313 314 316 315 315 316 315 315 316
269 268 268 268 268 267 267 267 267 267 267 267 267 267 267 268 268 268 268 269 269 269 269 270 269 269 269 268 268 268 268 268 268 269 269 270 270 270 270 270 271 272 272 272 273 272 272 272 273 275 277 278 279 280 283 287 290 290 291 292 292 293 294 295 295 296 296 295 295 298 301 304 308 313 314 312 311 313 313 313 313 314 314 313 315
268 268 267 267 267 266 267 267 267 267 267 267 267 267 267 267 267 268 268 268 268 268 268 268 268 267 267 267 267 267 267 267 268 268 268 269 269 269 270 270 270 271 271 272 272 272 272 272 273 274 276 278 279 281 284 287 289 290 290 291 292 292 292 293 294 294 294 296 296 296 299 301 303 306 311 313 311 308 307 309 311 312 311 311 311
267 267 267 266 266 266 266 266 266 266 266 266 266 267 267 266 267 267 268 267 266 266 266 266 266 266 266 266 266 266 266 266 266 267 267 268 268 268 269 269 270 271 271 271 272 272 272 272 273 274 275 276 278 280 282 285 288 288 289 290 291 291 291 292 293 293 293 294 295 297 297 300 303 303 308 313 312 310 307 305 304 306 308 310 308
266 266 266 266 266 266 266 266 266 266 266 266 266 266 266 266 266 266 265 265 264 264 264 264 265 265 265 265 265 265 265 265 266 266 267 267 268 268 268 269 269 270 271 271 272 272 272 272 273 273 274 277 280 282 285 286 287 288 289 290 289 288 288 289 290 292 292 294 295 295 297 298 300 305 307 310 308 307 309 308 304 304 305 307 308
265 265 265 265 265 265 266 266 266 265 265 265 265 264 264 264 264 264 263 263 263 263 263 263 263 263 264 264 264 265 265 265 266 266 266 267 268 268 268 269 269 269 270 270 271 271 272 272 273 273 274 277 279 280 282 284 285 287 288 287 286 286 287 287 287 287 289 292 294 296 296 297 300 302 304 306 307 306 307 309 307 307 306 306 306
265 264 264 265 265 265 265 265 265 264 264 263 263 263 262 262 262 262 262 262 262 262 262 262 262 262 262 263 264 264 264 265 267 271 272 269 269 270 270 270 270 270 270 270 270 271 272 272 273 276 277 278 279 281 282 283 285 286 288 287 286 286 286 285 285 286 287 288 290 294 295 296 299 302 305 307 309 309 308 308 306 305 306 303 303
264 264 264 264 265 265 264 264 263 263 262 262 261 261 261 261 260 260 260 260 260 261 261 261 261 262 262 263 263 264 265 266 270 272 273 275 272 271 271 271 272 271 271 271 270 271 272 274 275 276 278 279 279 282 283 284 286 288 290 289 288 287 285 285 285 285 285 285 288 293 295 296 299 304 306 308 309 309 308 308 305 305 303 301 298
263 263 264 264 264 264 263 263 262 261 261 260 260 260 259 259 259 259 259 259 260 260 260 261 261 262 263 263 264 264 265 269 272 273 274 275 275 272 272 272 272 272 272 272 272 273 273 273 274 275 277 279 280 282 284 286 287 288 289 289 289 289 289 287 285 285 285 284 285 289 296 297 300 304 306 308 307 308 308 307 306 305 303 302 302
263 263 263 263 263 263 262 261 260 260 260 259 259 258 258 258 258 258 258 259 260 260 260 261 262 263 263 263 264 264 265 270 272 273 274 275 276 275 273 273 272 272 273 273 273 273 273 273 274 275 277 280 281 282 284 285 287 288 289 289 289 289 289 289 289 286 286 285 285 285 293 300 300 303 307 308 308 306 305 305 305 305 305 303 303
262 262 262 262 262 262 261 260 259 259 259 258 258 258 257 257 258 259 259 260 260 261 261 262 263 263 263 263 263 264 264 268 272 273 274 275 276 276 274 274 273 273 273 273 274 273 273 273 273 274 276 278 281 284 285 286 286 286 287 287 286 286 288 288 288 288 287 286 286 285 288 298 301 304 306 307 306 304 304 303 304 303 303 303 305
262 262 262 262 261 260 260 259 258 258 258 258 257 257 257 258 258 259 259 260 260 261 261 261 261 262 262 263 263 263 264 270 272 273 274 275 276 277 274 274 275 275 275 275 274 274 274 275 274 274 276 278 281 283 284 285 285 286 285 285 286 286 286 286 287 287 287 287 287 287 289 292 302 306 308 309 308 308 307 304 304 304 303 301 301
262 261 260 260 259 260 259 258 258 257 257 257 256 257 257 258 258 259 260 260 261 261 261 262 261 261 262 262 262 262 263 270 271 272 274 275 277 274 274 274 275 274 274 275 275 275 275 275 275 275 276 277 279 282 283 284 285 285 285 285 286 286 286 288 288 288 288 289 290 292 293 294 297 305 305 309 309 309 305 304 300 297 298 300 298
260 260 259 259 259 259 259 258 257 256 256 256 256 256 257 257 258 260 260 260 260 260 260 261 261 261 261 261 262 262 263 267 271 273 274 275 275 273 274 275 275 275 275 275 275 275 275 275 275 275 276 277 280 283 285 285 284 284 284 285 285 286 286 287 288 289 289 290 291 291 293 296 298 302 304 305 304 305 303 300 297 302 301 299 296
260 259 259 259 259 258 258 257 256 256 256 255 256 257 257 258 259 260 259 259 259 260 260 260 260 261 261 261 262 262 264 267 271 272 273 275 275 273 273 273 274 275 275 275 275 276 276 278 277 276 276 278 282 284 285 284 282 283 284 284 284 285 285 287 287 287 288 289 290 291 293 295 297 301 303 304 303 301 302 300 300 303 301 299 297
259 258 259 259 258 257 256 256 256 255 255 255 256 256 257 258 259 260 260 259 259 260 260 260 260 260 261 261 265 264 263 265 270 271 273 274 274 273 273 273 273 273 274 275 276 276 276 277 279 279 278 279 282 283 284 284 283 283 284 284 283 284 285 286 286 286 286 286 288 292 293 294 297 303 301 301 300 300 306 303 303 303 301 299 298
259 259 258 258 257 256 256 255 255 255 255 255 256 257 258 258 259 259 259 259 259 259 259 259 259 260 261 262 262 263 263 264 266 272 274 274 275 272 272 271 271 272 274 275 275 275 276 276 278 280 282 283 283 284 285 285 284 284 284 283 283 283 286 286 286 286 286 286 287 290 295 298 299 302 303 301 301 300 305 305 305 305 302 300 299
257 257 257 256 255 255 255 254 254 254 255 255 257 257 258 258 258 258 258 259 258 258 259 259 259 260 261 262 262 263 264 265 267 272 273 273 274 274 271 272 272 272 273 274 275 275 276 276 277 280 282 283 284 285 285 286 286 285 285 284 284 285 287 285 286 286 286 286 286 288 295 297 299 301 301 302 301 303 303 302 305 306 304 301 300
256 255 255 254 254 254 254 254 255 255 256 256 256 257 258 258 258 258 258 258 258 258 259 259 260 260 261 262 262 263 266 269 267 270 272 273 274 275 272 272 273 273 273 273 274 274 276 277 278 280 282 283 284 284 285 286 286 285 285 287 287 287 286 286 286 286 286 286 286 289 295 297 299 299 300 300 300 301 303 304 305 306 306 306 302
255 254 254 253 253 253 254 254 255 255 256 256 256 256 257 257 257 258 257 258 258 258 259 260 260 261 261 262 263 264 266 266 269 268 271 272 274 274 275 274 276 274 272 272 273 273 275 276 278 281 282 283 283 284 285 286 286 285 287 287 287 288 287 286 286 285 285 285 286 290 295 297 297 298 299 300 301 302 303 304 305 306 303 304 305
253 252 252 253 253 253 254 254 255 255 255 256 256 256 256 256 257 257 258 258 259 259 260 261 261 261 261 262 263 264 266 266 268 270 269 272 273 274 275 275 276 273 273 272 273 273 274 275 277 280 282 283 284 284 285 285 285 286 287 287 287 287 286 285 285 285 285 285 286 290 293 296 297 298 298 299 300 302 303 303 304 303 303 303 302
251 251 251 252 252 253 253 254 254 254 255 255 255 255 255 256 256 257 258 259 260 260 261 262 261 261 261 262 263 264 265 265 265 267 271 271 273 274 274 275 275 276 272 272 273 273 275 278 279 280 281 283 284 285 284 285 286 286 287 287 286 286 285 285 285 285 285 285 287 291 293 295 298 299 301 302 300 301 299 299 299 293 291 291 291
251 250 250 251 251 252 252 254 254 254 254 255 255 255 255 256 256 257 259 260 260 260 261 262 262 262 262 262 263 264 265 265 265 266 268 269 271 272 273 274 274 274 274 272 275 276 277 278 279 280 281 282 284 283 283 283 285 286 286 286 285 285 285 285 285 285 285 286 288 291 293 295 297 299 300 300 299 299 298 297 293 293 294 294 294
251 250 250 250 251 252 252 253 254 255 254 254 255 255 255 256 257 258 260 260 260 261 263 262 262 262 262 262 263 264 264 264 265 265 266 268 269 270 270 270 272 273 271 271 273 273 274 275 276 279 280 282 284 285 284 285 285 285 285 285 286 286 286 285 286 286 286 287 289 292 294 295 296 295 297 297 298 298 298 295 297 297 295 296 295
250 249 249 251 251 251 252 256 255 253 254 254 254 254 255 256 257 259 259 260 261 262 263 262 262 262 262 263 263 263 263 264 264 265 267 268 268 269 269 269 269 269 270 271 272 274 274 276 277 277 279 282 284 284 284 284 285 285 285 285 285 286 286 286 286 286 287 289 291 292 292 292 292 293 295 296 297 297 296 296 297 296 296 295 293
250 249 250 250 250 253 252 251 252 252 253 254 254 254 255 257 259 259 261 262 264 264 263 263 264 264 264 263 263 263 263 264 265 271 269 272 269 268 268 268 269 270 272 275 273 273 274 275 275 276 278 280 282 283 283 284 284 284 285 285 285 285 285 285 285 286 286 288 290 291 291 292 292 293 293 294 295 296 296 296 296 297 295 296 295
249 249 249 249 250 251 251 250 251 252 251 252 253 254 259 263 262 261 260 265 268 269 269 265 266 266 265 265 266 265 264 265 271 272 272 272 272 272 272 272 273 271 273 274 274 272 273 275 275 276 278 280 281 282 283 284 283 284 284 285 285 285 285 286 286 286 288 290 291 291 291 291 291 292 293 293 294 294 295 295 295 296 295 296 295
248 248 249 248 251 252 250 250 251 251 252 252 252 252 253 255 262 265 265 266 267 268 268 269 270 270 267 265 267 271 271 271 271 271 272 272 272 271 271 271 272 272 272 268 268 269 270 272 274 276 277 279 281 282 284 284 284 284 284 285 285 286 286 286 286 287 289 290 291 291 291 292 291 292 293 293 293 293 294 294 295 295 296 296 295
247 246 248 249 251 252 251 251 251 251 251 252 252 252 251 251 252 261 265 265 266 267 267 268 268 269 270 269 268 266 269 271 271 271 271 271 270 270 270 270 272 271 270 269 263 264 265 265 266 267 268 269 271 274 278 282 284 285 285 285 285 286 286 286 288 289 290 291 291 290 291 291 292 292 293 293 292 293 293 293 294 294 295 296 295
247 246 247 249 250 251 251 250 250 250 249 250 250 251 251 250 250 250 255 262 264 264 265 266 267 268 269 270 271 270 270 270 271 271 270 270 270 269 269 268 270 270 268 261 260 261 262 263 263 264 264 265 266 268 271 273 277 282 285 285 285 286 286 288 290 290 290 291 291 291 291 292 292 292 291 292 292 292 292 292 293 294 294 295 294
247 246 247 249 250 249 249 249 249 249 249 250 250 250 250 250 249 250 250 251 254 258 262 263 265 267 268 269 270 270 270 270 270 270 270 269 269 268 267 263 269 269 266 259 260 259 260 261 262 263 263 264 265 266 267 268 271 274 279 284 286 286 287 288 289 290 291 291 291 291 291 292 291 292 292 292 292 292 292 292 293 293 293 294 294
247 249 252 253 249 249 249 249 248 248 249 249 249 250 250 251 251 250 250 250 250 251 252 254 260 265 264 265 269 270 269 269 269 269 269 269 268 266 265 259 258 258 259 259 259 259 259 260 261 262 263 263 264 265 265 266 267 269 271 275 282 286 286 287 288 290 291 291 291 291 291 291 291 291 291 291 291 291 291 292 292 293 293 293 293
247 249 250 251 249 249 248 246 247 247 248 249 250 250 251 250 250 249 250 251 250 251 252 253 254 260 265 265 269 268 268 268 268 268 268 268 267 264 256 257 257 257 258 258 259 260 261 260 261 262 263 264 264 264 265 265 266 267 269 272 276 282 286 286 287 289 290 291 291 290 290 291 291 291 292 291 291 291 292 292 292 292 292 293 292
246 247 248 250 249 248 246 246 246 249 252 250 249 249 250 249 250 249 249 249 250 251 251 252 254 255 258 258 264 266 267 266 266 266 266 266 266 257 254 255 256 258 258 258 259 260 260 261 261 262 263 263 264 264 265 265 266 266 268 269 271 276 284 286 288 289 290 291 291 291 290 291 291 291 291 291 291 291 291 291 292 291 291 291 290
246 247 248 250 249 247 246 246 247 250 248 249 248 246 247 248 248 248 249 249 251 251 250 251 254 252 253 254 263 261 259 262 264 262 262 262 257 255 254 254 255 257 258 259 260 260 260 261 262 262 263 264 264 265 265 265 266 266 266 266 268 272 278 285 287 289 289 291 291 290 291 291 291 291 291 291 290 291 291 291 291 291 291 290 291
246 251 254 254 253 247 244 245 246 245 245 246 246 247 248 248 247 247 247 247 248 249 250 250 251 251 252 254 259 260 257 254 254 254 255 255 256 255 254 253 253 256 258 259 260 260 261 261 262 263 263 264 264 265 265 265 265 265 266 266 266 268 270 276 284 287 288 290 290 291 291 291 291 291 291 291 290 291 291 290 290 291 291 291 291
246 246 250 254 248 249 246 246 245 243 245 245 245 246 246 246 246 246 246 246 247 248 248 249 250 250 252 255 260 258 253 253 253 254 254 254 254 254 254 253 253 254 257 258 259 260 261 261 262 262 263 264 264 265 265 265 265 266 265 265 265 265 267 268 271 280 286 288 289 290 291 291 291 291 291 291 291 291 291 290 290 290 291 291 291
246 247 249 251 250 246 245 245 243 243 242 244 243 243 244 246 246 246 246 246 247 248 248 248 249 250 252 258 264 262 253 252 253 253 253 253 253 253 253 252 252 253 256 258 259 260 261 261 262 263 263 264 264 265 265 265 265 266 265 265 265 265 265 266 267 268 272 281 288 289 290 291 291 291 290 291 290 291 291 291 291 291 291 291 291
241 243 246 244 245 244 243 243 243 244 242 244 242 243 245 245 245 245 246 246 247 247 247 247 248 249 253 261 261 262 253 252 253 253 253 253 253 252 252 252 253 254 256 258 259 260 261 261 262 263 263 263 264 265 265 265 265 265 265 265 265 265 265 265 265 266 268 270 278 287 289 290 290 291 291 290 291 291 291 290 290 290 291 290 290
243 243 242 244 243 243 242 241 242 241 241 242 242 246 246 244 242 244 244 245 246 247 246 247 247 249 250 257 257 258 251 251 253 252 253 253 253 252 252 252 252 254 256 257 260 261 261 261 262 263 263 264 264 265 265 265 265 266 266 266 265 265 265 265 265 266 266 267 270 278 286 289 290 290 291 290 291 291 290 290 290 290 290 290 290
242 243 243 243 242 241 242 240 241 242 241 245 245 244 244 242 242 242 243 243 245 245 245 246 247 247 248 249 251 250 249 250 251 251 252 253 252 252 252 252 252 254 255 256 259 261 261 261 262 263 264 264 265 265 266 266 266 266 266 266 266 266 265 265 265 265 266 266 268 273 281 287 289 290 290 289 290 290 290 289 289 289 290 290 290
240 241 240 239 240 239 239 240 241 239 243 241 239 239 242 239 241 242 243 243 245 245 245 245 246 246 247 247 248 248 248 249 250 251 251 252 252 252 252 251 252 253 254 254 257 260 261 261 262 262 263 264 265 265 266 267 267 267 267 267 266 266 265 266 266 266 267 267 268 272 279 286 288 290 290 290 290 290 290 289 289 288 289 289 289
240 240 241 239 240 240 239 238 241 238 238 239 239 238 239 239 239 241 243 243 244 245 244 245 245 246 246 246 247 248 248 248 249 250 251 251 251 252 252 251 252 252 254 254 256 259 260 261 261 262 263 264 265 265 266 267 267 267 268 268 268 267 267 267 268 268 268 268 269 271 279 285 288 289 289 290 290 290 290 290 289 289 289 289 289
238 240 240 240 239 240 240 240 239 239 237 239 239 239 239 240 239 242 243 244 245 245 244 243 244 244 245 246 246 246 247 248 248 249 249 250 251 251 251 251 251 252 253 254 255 258 260 261 261 262 263 264 265 265 266 266 267 268 268 268 268 268 267 267 268 268 269 269 271 272 279 286 286 287 288 289 289 289 289 289 289 288 289 289 288
240 240 239 240 238 238 237 237 239 242 238 238 239 240 240 240 239 241 241 242 242 243 243 243 243 244 245 245 246 246 247 247 248 249 249 249 250 250 250 250 251 251 252 253 254 257 260 260 261 262 263 264 265 265 265 266 267 267 268 268 269 269 268 268 267 268 269 269 270 271 273 277 281 285 286 286 286 287 287 287 288 288 288 288 288
239 239 239 239 239 238 238 238 239 236 237 237 237 238 239 238 239 239 240 241 241 242 241 242 242 243 244 245 246 246 246 247 247 248 248 249 249 249 250 250 250 250 252 252 253 256 259 260 261 261 262 264 265 265 265 266 267 267 268 268 269 270 269 268 267 267 268 268 269 270 271 272 272 273 275 280 284 286 286 286 286 286 287 287 287
241 240 240 240 239 238 238 237 236 235 237 237 236 237 238 238 237 239 242 243 244 243 244 243 242 242 243 244 245 245 245 246 246 247 247 248 248 249 249 249 249 250 252 252 253 255 258 260 260 261 262 263 265 265 266 266 267 267 268 268 270 270 269 268 267 267 267 267 268 268 269 269 270 270 271 272 273 276 278 281 284 285 285 285 285
243 243 242 239 239 238 237 234 235 235 235 237 236 236 237 237 238 241 242 242 243 242 242 242 241 242 243 243 244 244 245 245 246 246 247 247 247 248 248 249 249 249 251 252 252 254 258 259 260 261 262 262 265 266 266 266 267 267 269 270 270 269 268 268 267 267 267 267 267 267 267 267 267 267 268 269 270 271 271 272 273 275 279 282 284
Wind_Speed
2 2 2 2 3 4 5 5 7 7 8 8 10 10 10 11 10 10 11 12 12 14 13 14 15 15 16 16 15 16 15 16 14 13 13 14 14 15 17 17 19 17 16 18 16 16 18 19 17 14 13 14 14 14 14 12 10 9 9 10 12 12 11 12 14 17 10 9 9 11 12 12 15 15 17 15 14 15 17 14 14 13 13 13 17
2 3 2 3 4 5 6 5 6 7 9 10 10 10 10 10 11 11 13 13 12 14 15 14 14 16 16 17 16 17 16 17 17 14 14 15 15 13 14 18 19 19 17 17 18 16 15 16 16 16 14 14 15 16 16 12 10 10 10 11 11 11 11 12 14 14 16 9 9 10 11 12 16 15 16 17 17 13 16 15 14 16 15 13 15
2 2 4 4 5 5 6 7 8 8 9 9 9 10 10 11 10 13 13 13 12 13 14 15 16 16 17 17 18 16 18 16 15 15 17 17 16 15 15 17 19 19 19 19 18 17 18 17 17 15 14 15 15 15 15 14 10 11 12 10 13 12 11 13 12 13 15 15 10 11 11 12 16 18 17 17 18 19 18 17 16 15 15 16 16
2 2 4 4 5 7 7 7 7 8 9 8 10 10 11 11 11 12 13 13 14 14 14 15 16 16 17 18 17 19 18 17 17 16 17 18 16 17 16 16 17 19 19 19 17 17 19 19 18 15 15 15 15 14 15 13 11 10 11 11 11 12 11 12 13 13 13 14 12 10 11 11 14 19 17 16 19 18 17 16 18 19 16 15 17
2 3 4 6 7 7 8 7 8 8 9 9 11 11 11 11 11 12 12 13 13 13 14 14 15 16 16 18 19 18 19 18 19 19 17 17 17 18 18 18 18 18 19 18 19 19 19 19 19 17 17 16 14 14 13 15 10 9 10 9 11 12 11 11 11 11 13 15 14 9 10 11 13 15 17 17 15 16 16 18 19 19 19 17 14
2 3 4 6 7 8 7 8 9 10 10 10 11 11 11 11 12 12 12 14 14 14 15 15 14 17 18 18 19 19 18 18 18 19 19 18 17 17 17 18 19 19 19 19 19 18 19 19 19 18 17 17 15 14 14 13 11 9 9 8 9 9 11 11 11 12 14 15 12 11 9 11 13 12 15 19 17 14 12 14 17 18 18 17 14
2 4 5 6 7 8 8 7 8 9 9 10 10 11 12 11 11 12 12 13 14 16 16 16 16 16 18 18 18 19 19 19 19 19 19 19 19 19 19 19 19 17 17 17 18 17 19 19 19 17 18 18 17 15 15 14 11 11 10 10 9 10 11 11 11 12 13 15 13 13 11 11 13 11 11 18 18 19 18 14 13 11 14 18 15
4 5 5 6 7 9 8 8 8 9 9 9 11 11 11 11 12 12 12 14 14 15 16 17 17 16 17 18 19 18 19 19 19 19 18 18 18 18 18 18 18 18 17 17 17 17 19 19 19 19 19 19 15 15 14 13 11 12 10 8 7 6 6 6 7 9 11 13 12 12 12 13 13 12 10 15 16 15 18 19 18 15 13 14 17
4 5 6 6 7 8 8 8 8 8 9 10 9 10 10 11 11 12 12 13 13 14 15 16 17 18 18 18 19 18 17 17 15 15 16 17 17 18 18 18 18 17 17 17 17 17 17 18 19 19 21 26 30 26 23 20 13 9 7 7 8 8 9 9 9 7 8 9 11 11 12 13 15 14 13 15 19 18 14 17 18 20 18 16 15
4 4 5 7 7 7 8 8 8 9 9 10 10 10 11 11 11 12 13 13 13 13 14 15 16 17 19 19 18 16 16 14 19 28 25 19 18 16 15 15 16 17 17 17 16 16 17 17 18 27 29 30 30 31 30 31 30 22 11 9 8 9 9 9 9 7 7 10 13 12 15 16 16 16 15 16 17 18 22 19 19 17 17 15 12
3 4 6 6 7 7 7 7 8 9 9 9 9 11 12 11 12 12 12 12 12 12 13 15 15 16 18 19 19 17 15 15 27 27 28 30 23 19 17 16 15 15 13 14 14 15 15 17 18 21 24 26 25 32 31 31 29 29 25 19 15 12 10 11 10 8 8 10 12 16 16 19 19 16 18 20 18 21 20 19 17 18 18 19 16
4 5 6 6 6 6 7 8 8 8 9 10 11 11 11 11 11 12 12 13 12 11 13 14 14 16 16 17 18 17 17 22 29 28 29 29 27 20 17 16 15 15 16 17 15 15 17 18 17 15 16 18 18 19 23 27 30 29 28 25 26 26 21 13 11 9 10 10 12 16 16 19 18 18 18 19 18 19 20 20 21 22 21 21 19
3 5 5 4 5 6 6 7 7 8 9 10 10 10 11 11 12 12 13 12 12 13 12 14 15 14 15 18 18 18 18 24 27 29 29 30 30 25 17 17 16 16 17 17 15 16 15 16 16 14 14 25 22 18 16 16 22 27 26 26 26 27 25 24 20 14 10 11 12 16 17 18 19 20 20 20 17 20 19 19 20 21 22 22 20
3 5 4 4 5 5 5 5 7 8 9 10 9 10 11 11 11 11 11 12 12 13 13 14 14 15 17 18 18 18 19 23 29 29 29 30 31 27 17 18 16 16 16 17 16 16 15 17 16 16 16 17 16 15 13 13 11 11 13 13 12 15 20 22 22 23 19 13 14 17 19 17 18 19 20 22 23 22 22 22 23 22 22 22 19
3 4 4 5 4 3 5 6 7 8 9 9 10 10 10 11 11 10 10 11 11 11 13 15 14 15 16 16 17 18 17 28 29 31 30 30 30 27 16 16 14 13 14 16 16 16 16 16 18 19 17 17 15 15 11 11 12 12 12 12 12 11 11 11 12 11 11 12 15 18 20 20 19 20 19 22 26 24 25 26 27 25 19 14 13
4 3 4 3 3 4 4 6 7 8 10 9 10 11 11 10 12 12 10 10 10 11 11 12 14 15 14 16 17 19 19 28 30 31 32 30 31 18 15 15 13 12 11 14 15 15 15 16 17 17 17 19 22 27 24 16 12 11 12 12 11 11 11 11 16 16 14 13 15 18 17 21 25 19 20 23 23 21 20 16 13 14 17 17 16
3 3 3 2 3 3 5 6 7 8 9 10 11 11 12 12 11 9 11 11 12 12 12 11 11 13 15 15 17 18 18 24 29 31 30 30 24 14 14 12 11 13 13 14 14 15 17 18 18 17 17 17 24 29 28 24 14 14 13 12 11 10 12 10 17 21 23 24 28 32 34 35 34 32 28 32 26 20 17 17 17 19 20 19 16
2 3 3 2 4 4 5 5 6 8 9 10 11 11 10 9 9 9 11 12 13 12 12 12 11 12 14 16 15 18 18 24 30 29 29 29 24 16 14 13 14 13 14 14 11 13 17 28 24 19 18 17 21 25 25 20 15 14 13 12 13 14 14 10 9 12 18 22 26 31 35 35 36 33 29 29 28 22 22 23 22 22 22 21 19
2 2 3 3 4 4 4 5 6 7 8 10 9 11 11 10 10 9 9 10 11 11 11 12 12 12 12 15 22 22 18 21 29 29 29 28 22 14 13 12 13 12 12 11 11 12 12 16 25 23 21 21 29 28 29 23 15 13 12 12 14 16 14 9 10 12 13 13 16 19 20 26 25 23 23 32 31 28 25 26 24 24 23 21 21
2 4 4 4 3 4 3 4 6 7 9 10 9 9 10 10 10 10 10 9 10 10 10 11 13 13 13 14 14 15 17 18 21 28 26 27 28 18 13 12 13 13 13 12 12 11 12 13 16 24 28 29 29 30 29 28 18 13 12 13 15 18 10 8 11 10 12 13 16 19 18 17 18 20 20 22 25 26 24 22 23 23 23 21 20
2 2 3 3 3 4 4 3 7 8 8 9 9 9 8 10 11 11 11 10 10 11 12 12 12 13 12 13 14 16 15 17 17 25 28 29 29 24 13 13 13 13 13 13 10 11 12 12 12 19 25 26 27 28 27 26 23 14 13 14 14 13 11 10 12 13 12 14 16 19 16 14 17 16 18 19 20 20 20 20 21 22 23 22 21
2 2 3 3 3 4 4 6 6 7 8 8 8 9 8 9 10 10 10 10 12 13 12 12 12 13 12 13 13 13 15 21 17 23 28 28 27 29 17 15 17 15 14 13 12 12 13 12 12 17 23 24 25 26 27 25 26 16 14 17 20 19 16 11 10 10 11 12 14 16 14 14 16 15 18 19 18 18 18 20 20 21 21 24 27
2 2 3 4 5 5 5 6 8 6 7 8 8 9 9 9 10 10 10 11 11 12 13 12 13 14 12 10 9 14 16 15 23 21 26 27 27 26 28 23 26 18 13 13 14 14 13 14 15 22 24 24 25 26 26 28 23 15 18 21 23 24 17 10 10 11 12 13 14 14 13 14 14 15 15 18 18 18 18 17 20 20 19 20 25
1 2 3 4 6 6 6 7 7 7 7 8 8 8 9 9 9 9 9 10 10 12 12 13 12 12 13 13 13 11 13 14 19 25 22 27 27 29 28 28 28 18 16 14 14 14 14 14 14 22 22 23 25 25 26 24 16 17 20 23 23 19 11 10 10 12 13 12 13 12 11 13 14 16 16 16 16 19 19 20 18 16 16 16 15
0 2 5 5 6 7 7 6 6 6 7 7 8 8 9 8 9 9 8 9 10 12 12 12 12 12 13 13 11 11 12 15 17 19 26 27 29 27 27 29 27 27 17 13 14 14 19 26 28 27 26 25 27 27 23 23 26 23 23 23 19 10 10 10 11 11 12 12 12 10 10 14 16 17 19 19 19 17 16 15 12 7 7 9 9
2 4 5 5 6 7 9 9 6 5 6 7 7 7 8 9 9 9 9 9 10 13 13 12 13 13 13 15 15 17 18 13 14 15 17 21 20 26 30 27 25 26 24 19 24 27 26 26 28 27 22 19 15 12 11 12 17 19 21 20 11 10 9 10 10 11 11 10 11 12 11 12 15 15 17 16 17 16 16 14 11 10 12 12 11
4 5 6 5 5 5 7 8 9 8 5 5 7 7 7 8 8 9 8 9 8 8 10 13 14 14 14 14 14 14 13 12 16 16 13 11 13 17 18 16 21 22 15 12 13 12 15 16 14 20 20 25 22 16 15 15 13 11 10 10 9 9 9 9 10 10 9 9 11 11 9 8 8 11 14 15 16 16 16 17 17 15 13 12 13
5 5 5 4 5 6 6 9 9 9 8 7 6 6 7 7 8 9 10 10 11 11 12 15 14 9 8 11 14 16 13 10 12 13 15 15 15 15 14 15 13 11 12 12 12 13 12 15 16 12 11 10 7 6 8 8 9 8 8 8 8 9 10 13 11 9 8 10 11 9 6 5 7 9 12 15 17 16 16 17 17 16 14 13 12
6 5 5 4 5 4 5 4 6 7 9 10 8 4 6 7 7 8 10 9 11 12 11 10 11 12 13 13 13 8 12 12 12 24 23 26 22 18 15 14 13 12 16 24 18 13 11 10 9 9 9 8 6 5 6 7 8 8 10 9 9 9 8 8 8 8 9 10 10 8 7 7 9 11 12 13 15 16 15 16 16 17 15 15 17
5 6 4 3 5 5 5 5 4 6 6 8 11 13 10 11 9 8 8 17 22 22 19 13 14 13 12 12 12 15 13 15 31 34 33 32 32 30 25 25 25 21 25 28 18 10 8 7 6 8 9 7 7 5 5 6 7 7 8 9 10 9 8 8 8 7 8 11 10 11 12 11 10 12 14 14 13 13 16 19 17 17 17 16 16
5 5 3 2 5 4 5 5 5 5 5 6 6 8 13 14 14 17 19 20 21 22 22 23 25 26 18 14 15 29 30 32 34 33 33 32 31 30 28 25 27 27 28 17 13 13 12 10 8 8 9 9 8 6 6 5 6 6 7 7 7 8 8 8 7 7 10 10 10 9 10 13 13 14 15 16 17 15 14 14 16 17 18 18 17
7 3 1 2 4 5 3 4 5 5 6 4 4 6 6 9 15 19 20 19 22 22 21 23 25 25 28 25 19 14 25 33 34 33 34 33 31 30 29 26 27 28 25 23 14 13 11 10 9 10 10 10 11 12 12 10 7 6 6 7 7 6 7 7 7 9 9 10 10 10 11 12 13 14 15 15 16 15 14 14 15 17 17 17 17
6 2 0 2 4 4 4 3 4 4 4 5 6 4 5 6 8 12 18 22 22 18 19 23 25 25 27 28 30 28 27 29 33 34 34 34 33 29 28 27 26 29 31 20 12 12 12 11 11 11 10 10 11 11 11 12 13 11 8 7 7 6 5 7 8 9 9 10 9 11 12 13 13 14 14 15 15 16 16 15 15 16 16 16 15
5 2 0 2 3 4 4 3 4 4 4 4 4 5 5 5 6 7 9 12 16 19 19 21 24 27 26 28 29 32 31 31 31 33 33 34 34 30 26 19 28 31 24 11 11 11 12 11 12 11 11 11 11 11 11 12 12 12 13 10 7 6 6 7 8 9 8 10 10 10 11 11 11 12 13 13 15 15 16 16 16 15 14 15 15
5 2 3 3 1 3 3 3 3 3 4 4 5 5 5 6 6 7 8 10 11 12 13 15 19 24 21 21 29 33 31 30 30 30 32 33 37 33 24 18 20 17 18 13 10 8 9 10 11 11 11 11 10 10 11 11 11 12 11 13 12 7 6 7 7 7 8 8 9 10 10 12 12 12 13 14 14 14 16 16 14 16 17 16 15
4 1 1 2 1 2 2 3 3 4 3 3 4 4 5 5 6 6 7 8 8 9 11 12 13 18 28 26 30 31 31 30 28 29 29 32 33 34 19 15 17 17 13 9 9 10 11 9 9 11 10 9 9 9 9 10 11 11 11 11 13 12 8 7 7 6 7 9 9 10 12 11 13 13 13 13 16 17 16 16 16 16 16 16 14
3 1 1 1 1 1 2 3 4 3 4 3 4 4 5 5 6 6 7 7 9 9 9 11 12 13 16 12 20 28 31 27 27 26 29 29 31 20 13 13 13 12 13 12 12 10 13 13 11 8 8 9 9 9 9 10 11 11 12 12 11 13 11 7 7 6 6 9 9 10 11 11 12 13 14 14 14 14 15 16 15 16 15 17 17
3 1 3 3 1 1 2 2 2 4 3 3 4 3 5 5 6 6 7 8 9 9 10 11 12 11 14 15 21 16 20 22 26 24 25 24 20 17 13 13 13 12 14 13 13 12 13 13 13 13 12 12 12 10 9 9 11 11 11 11 12 11 19 12 9 7 5 5 9 10 11 11 12 12 13 14 15 14 14 15 14 14 15 17 16
1 1 1 1 1 2 1 1 2 2 3 4 5 6 7 7 7 8 8 8 8 9 9 10 10 11 12 12 11 16 18 16 17 16 16 16 16 17 15 11 12 12 13 13 13 13 13 13 13 12 12 12 12 12 12 11 10 10 11 11 11 11 12 12 9 5 4 3 5 8 10 11 11 12 12 13 14 15 15 15 14 15 16 15 16
3 1 2 2 2 2 0 1 1 3 3 4 6 6 6 7 7 7 7 8 9 9 8 10 10 10 12 12 12 14 13 14 13 13 14 16 16 17 18 15 12 12 13 15 14 14 13 13 13 13 13 13 13 12 12 12 11 10 9 10 10 10 10 9 10 10 5 4 3 6 9 10 11 11 11 11 13 13 15 16 16 15 16 16 16
1 0 1 1 1 1 1 1 3 3 3 3 3 5 5 4 6 6 6 7 8 8 9 9 9 10 11 17 28 23 10 11 12 12 13 14 15 16 15 14 12 10 12 14 14 14 13 13 13 13 13 13 13 12 13 12 12 12 11 11 10 10 10 9 8 8 10 8 4 5 7 9 10 12 12 11 12 13 13 14 15 14 15 14 14
3 1 0 0 0 0 1 2 2 4 3 3 4 4 4 6 5 6 6 7 7 8 8 9 9 9 15 28 26 27 13 10 11 11 13 13 13 16 11 11 15 15 13 13 14 14 14 14 13 13 14 14 14 14 13 13 13 12 12 12 11 10 10 9 9 8 7 8 9 5 7 8 10 11 13 12 12 11 12 12 14 14 14 14 13
3 2 1 0 0 1 2 2 1 2 4 4 4 4 5 5 4 5 6 5 7 7 8 9 10 10 12 19 22 22 11 11 10 12 12 13 13 12 12 15 15 14 13 13 12 13 13 13 13 13 14 14 14 13 13 13 13 13 12 12 12 12 11 10 9 9 7 7 7 9 6 9 10 10 10 11 11 12 12 13 13 13 14 14 14
3 2 1 1 1 1 1 1 2 3 3 4 4 3 4 4 4 4 5 5 7 6 7 7 8 10 10 12 13 11 11 11 11 12 13 12 14 14 15 14 10 14 14 15 13 13 12 13 13 13 13 13 13 14 12 12 12 12 13 13 13 13 12 11 9 8 7 7 7 7 7 7 10 10 10 10 11 12 12 13 13 13 13 13 13
4 3 3 3 2 3 3 2 2 2 3 3 3 3 3 3 5 5 6 6 6 6 6 7 8 8 9 10 11 11 11 11 12 12 12 12 12 14 12 9 10 13 15 14 12 13 14 14 14 14 15 15 15 14 14 13 13 12 12 12 13 14 14 12 11 9 7 7 7 7 7 6 8 10 11 11 12 12 12 13 14 13 13 13 14
4 3 3 3 3 2 2 2 2 3 3 3 4 4 4 4 4 4 6 5 5 6 7 7 7 7 7 8 9 9 10 10 11 10 11 12 13 13 13 12 10 13 14 15 13 13 14 14 14 15 15 15 16 15 14 14 14 14 13 13 13 13 12 11 10 10 8 7 7 7 8 5 6 8 10 11 11 12 12 13 12 13 14 15 15
4 3 2 2 3 2 1 1 1 3 3 3 3 3 3 4 3 5 5 6 6 5 7 7 7 8 8 8 9 9 9 10 10 10 11 11 12 13 13 11 10 10 14 19 16 14 14 15 15 15 15 15 16 17 16 15 14 14 14 14 15 16 15 13 12 11 10 10 8 7 6 5 5 5 8 9 8 9 9 10 11 13 13 13 14
4 3 4 3 2 3 2 2 3 3 2 3 2 3 2 2 3 4 5 6 6 6 6 6 7 7 7 7 8 8 9 9 9 9 10 10 11 12 13 12 10 10 9 10 15 15 14 14 15 15 16 16 18 16 16 16 16 16 16 15 17 20 24 24 15 16 13 12 11 11 10 7 4 4 6 7 7 6 7 7 8 9 10 10 10
3 4 3 3 2 2 2 2 1 1 1 2 2 3 2 3 3 3 5 5 5 5 5 6 7 7 7 7 7 8 8 8 9 10 10 11 11 12 13 13 12 11 13 15 14 14 15 15 16 15 15 15 16 17 17 18 18 17 18 17 25 37 34 34 22 20 20 14 13 13 11 10 10 10 9 5 5 7 7 6 7 7 7 7 8
3 3 2 2 2 1 1 1 1 0 0 1 1 2 2 3 3 4 5 5 5 5 5 5 6 7 7 8 9 9 9 9 10 10 10 10 11 11 12 13 12 10 13 16 15 13 13 14 16 15 16 15 16 17 17 17 18 19 19 23 36 37 35 34 32 35 23 14 15 12 12 11 12 11 10 10 9 9 7 4 5 8 8 9 9
4 4 3 2 2 2 2 2 1 0 0 0 0 1 2 3 3 4 4 5 5 6 5 5 6 6 7 7 7 8 8 9 8 9 9 9 10 11 11 12 10 10 14 16 20 16 13 14 14 15 15 15 15 17 17 18 18 22 29 38 37 36 37 33 24 29 33 21 15 15 14 15 15 14 11 11 11 11 10 9 9 7 5 4 6
Wind_Direction
279 282 282 288 308 307 301 297 295 294 297 296 294 293 295 295 294 294 294 288 288 285 283 283 284 282 282 278 279 281 280 278 272 264 263 264 265 265 267 265 267 267 270 268 269 273 270 263 264 265 273 276 279 280 264 243 237 235 241 250 252 248 247 252 260 267 260 222 234 246 257 264 257 223 196 187 183 192 174 169 160 161 167 170 170
273 287 300 317 311 302 300 301 300 303 301 297 291 293 295 296 296 295 289 287 285 285 286 285 283 283 281 281 282 282 280 280 277 269 263 263 265 263 263 265 265 265 264 267 270 271 277 287 284 281 274 274 275 275 268 253 242 241 242 242 245 249 239 246 252 261 266 246 233 239 249 247 252 232 198 182 178 184 176 168 167 165 169 172 169
276 306 322 319 307 303 307 304 302 290 284 280 281 285 288 289 288 285 283 284 283 282 286 288 286 285 283 282 284 282 281 277 278 275 272 268 265 264 262 263 264 264 264 266 270 272 273 274 277 276 274 272 272 273 272 255 244 246 245 239 243 242 241 242 249 254 258 260 237 244 241 245 240 229 204 182 174 177 169 166 164 165 163 166 166
308 328 306 300 307 308 307 295 281 283 282 283 285 288 286 281 278 278 282 285 289 291 288 290 290 287 287 285 283 284 281 279 278 274 272 272 270 268 266 262 261 262 262 265 266 269 272 273 270 270 268 265 266 272 274 259 237 238 244 244 247 246 242 250 249 254 257 261 247 231 243 241 247 224 202 182 175 175 167 159 160 161 159 166 165
336 312 307 320 323 321 310 296 286 284 286 287 286 285 283 282 281 282 289 290 291 295 296 296 294 291 288 287 287 283 280 280 279 277 272 269 270 270 269 268 265 263 263 264 264 265 268 267 271 272 271 267 265 265 262 263 246 240 243 246 248 246 243 247 254 257 261 251 255 238 240 245 244 227 191 177 173 169 163 161 161 158 158 160 164
309 318 331 330 324 311 298 298 296 292 291 290 289 288 285 284 289 290 293 295 301 301 300 299 295 292 289 288 285 283 281 279 278 276 275 272 271 270 268 266 265 264 264 263 262 262 266 267 267 265 263 263 265 268 270 260 249 240 242 249 256 258 256 253 252 257 261 260 250 252 234 242 246 238 197 169 164 158 154 155 154 155 152 153 160
325 339 341 331 316 310 300 288 292 296 296 292 289 292 291 290 295 300 304 303 304 304 301 297 294 292 291 289 286 285 283 281 278 275 273 271 270 269 267 265 266 265 263 262 261 263 267 267 265 264 264 262 263 261 261 262 258 252 243 249 253 256 253 252 250 252 254 256 249 244 246 242 246 239 207 169 164 159 155 152 148 149 147 148 151
339 347 340 323 309 300 297 298 299 300 292 287 287 293 297 302 307 306 307 305 304 302 301 298 295 292 290 289 287 285 283 281 278 275 273 271 268 266 264 266 266 266 265 262 262 263 266 267 267 265 265 262 253 251 251 252 249 243 235 229 244 261 278 286 281 264 253 250 244 239 232 242 246 242 205 171 163 163 161 156 152 148 146 151 155
345 341 328 311 300 296 300 302 294 293 294 296 299 303 308 308 308 307 307 305 302 299 297 296 294 294 291 287 287 284 282 280 278 276 274 271 267 264 262 260 259 261 262 262 259 258 257 259 261 261 259 259 265 268 268 267 270 263 236 225 236 249 260 265 266 270 281 271 255 238 237 234 236 232 208 182 166 163 164 160 157 156 152 154 162
342 323 310 299 296 298 301 301 298 298 302 310 313 314 314 316 316 313 310 305 302 298 295 291 289 290 292 291 287 284 281 279 277 278 276 274 271 266 261 256 253 249 252 257 258 256 256 257 259 259 260 260 259 258 256 256 254 250 241 219 222 239 246 251 252 257 261 266 265 248 230 232 229 221 203 181 169 161 162 161 156 150 142 144 144
315 306 295 291 294 299 299 299 301 304 313 316 319 322 321 319 314 309 306 303 299 297 292 290 288 287 289 289 288 285 282 280 282 282 281 278 276 274 272 270 264 261 252 250 251 254 256 262 267 263 261 260 258 256 253 251 249 246 241 236 232 228 236 241 247 246 254 261 267 254 230 228 223 216 202 179 178 167 163 156 150 148 152 150 153
292 285 281 287 295 297 294 298 306 313 323 326 324 321 316 314 312 310 307 306 302 297 292 283 281 284 288 290 289 288 285 285 286 287 284 282 280 277 275 273 270 266 256 256 255 263 267 270 268 270 269 262 254 251 251 248 246 242 238 237 235 229 227 228 242 252 245 257 264 267 238 221 216 211 201 179 173 167 163 155 157 158 159 160 160
273 274 280 285 283 285 290 307 317 325 330 326 320 316 315 314 314 312 309 304 299 296 289 288 283 291 296 298 297 295 292 291 290 289 288 285 282 280 277 272 267 266 269 265 257 266 267 270 270 267 265 268 268 260 255 250 244 240 236 233 230 226 226 230 234 241 253 251 258 265 262 224 210 210 197 175 167 162 160 163 165 164 163 164 168
255 267 270 269 276 292 307 317 325 328 326 321 319 318 317 313 309 304 302 303 301 298 298 302 308 306 304 300 299 298 295 297 295 293 290 287 284 283 277 273 259 257 254 257 253 255 255 264 266 266 266 267 264 256 248 247 245 232 228 224 220 222 228 235 241 245 244 244 252 259 260 258 214 210 199 171 169 168 166 166 167 167 168 171 162
263 256 264 266 276 296 321 332 332 328 325 320 319 316 313 309 309 309 307 305 305 307 312 312 307 305 306 305 303 300 299 299 298 297 297 295 291 289 283 278 268 264 260 256 249 247 248 248 257 261 265 267 265 268 261 249 240 234 227 225 222 225 224 229 235 240 241 236 247 249 257 260 252 215 197 179 172 172 170 170 171 169 157 133 120
253 254 268 270 300 330 332 333 332 326 324 321 318 316 314 312 312 312 308 306 304 302 301 302 303 304 304 304 304 302 299 300 300 299 297 296 294 290 279 272 263 256 255 258 259 253 252 255 257 254 255 261 265 265 264 263 255 245 237 234 235 232 234 226 236 244 243 248 256 262 260 251 252 231 200 183 176 173 170 152 126 112 120 134 142
245 266 268 286 323 332 336 335 328 323 321 319 316 314 315 316 312 310 309 309 308 307 305 304 304 303 303 301 299 298 299 302 304 302 301 301 301 294 291 285 268 257 251 245 246 251 259 259 256 255 251 253 259 264 263 260 255 255 253 251 247 247 249 242 246 249 250 252 259 263 262 258 248 236 208 184 172 164 146 137 142 145 150 154 155
248 267 281 316 334 333 332 331 325 321 316 312 310 308 307 302 306 311 311 311 310 307 306 303 301 300 301 300 297 302 305 305 307 306 305 303 302 302 302 295 285 273 257 243 233 242 251 258 253 248 251 254 258 260 263 265 266 260 257 255 254 252 252 247 247 255 260 267 271 269 261 250 243 230 202 182 162 150 155 159 163 161 159 155 158
270 287 315 336 322 320 324 329 318 309 304 301 304 306 307 310 307 308 303 302 301 302 303 302 300 300 296 296 303 307 301 301 302 302 301 303 306 302 298 296 301 300 284 252 241 248 252 256 256 251 246 246 251 254 256 254 252 250 252 254 255 254 253 250 256 266 275 284 282 275 254 238 230 214 194 176 158 162 167 166 165 165 163 164 159
313 322 324 314 305 315 327 320 308 300 297 298 298 297 301 307 311 311 306 302 303 302 301 300 300 299 299 299 300 299 296 295 294 299 307 312 314 311 306 304 300 300 299 283 277 253 246 252 256 257 256 252 250 249 249 248 245 242 242 246 249 255 257 258 255 257 271 277 280 276 248 222 213 203 183 171 166 168 170 168 167 164 164 162 159
320 323 310 305 312 323 325 310 301 296 288 290 293 298 305 309 311 310 309 307 302 302 302 301 300 298 300 299 298 298 290 293 300 311 313 311 309 309 302 299 301 299 298 295 280 269 254 247 249 250 253 255 252 250 248 247 248 244 242 244 246 257 263 257 261 259 267 274 277 272 241 210 200 197 177 171 169 169 166 168 173 169 161 160 162
327 299 309 307 315 327 320 310 295 289 293 292 299 304 305 305 304 307 307 307 306 305 306 303 304 304 305 303 293 286 298 308 310 309 309 309 310 309 309 304 302 302 302 301 299 296 288 275 259 255 255 255 256 256 255 254 254 251 245 248 252 251 252 252 261 265 266 267 270 262 227 199 191 188 178 170 170 167 167 169 174 174 171 165 169
320 301 307 328 344 334 322 308 303 297 297 300 304 308 309 310 308 307 306 306 306 308 310 311 312 314 312 307 305 313 312 313 311 308 308 309 309 309 307 306 306 306 301 295 294 290 288 286 280 270 264 261 260 259 258 256 254 248 249 250 251 248 245 246 252 260 262 263 265 254 212 191 183 180 178 168 168 166 168 173 176 175 177 181 180
292 312 344 359 345 335 319 309 300 298 299 306 310 308 312 312 311 308 305 309 315 320 320 322 320 318 320 317 315 311 316 316 313 311 309 308 310 309 308 308 307 303 300 295 294 287 285 282 279 283 279 271 265 261 259 257 250 250 250 252 250 247 240 246 248 249 255 260 261 242 204 183 179 175 175 170 169 170 170 171 175 180 178 182 174
306 14 21 6 351 327 317 307 303 299 304 311 315 318 315 317 314 310 308 315 321 325 320 325 328 323 320 317 312 315 321 319 314 311 312 310 307 308 311 309 306 306 302 293 285 283 280 281 283 283 281 279 271 261 258 258 256 254 251 248 244 231 231 233 240 244 249 252 252 232 204 185 184 182 174 171 172 168 164 166 154 103 79 83 83
55 41 27 15 345 330 319 316 312 310 312 312 310 310 310 316 315 309 316 322 324 324 322 331 330 327 323 320 314 322 322 316 319 318 311 298 300 312 313 311 307 305 302 293 290 287 286 287 288 287 285 286 278 252 244 247 251 247 247 244 235 227 220 230 234 238 245 251 245 225 208 192 187 185 172 166 166 167 159 149 131 130 131 128 117
67 47 31 8 341 327 320 316 322 326 324 316 309 312 314 312 308 307 316 321 310 292 327 337 331 328 326 314 312 319 321 322 324 312 300 303 311 316 318 312 310 310 301 282 282 282 281 281 282 288 289 285 280 249 237 243 245 242 238 235 230 225 225 226 232 239 248 253 244 224 214 202 177 166 170 168 168 169 165 160 164 165 153 147 138
66 48 26 9 338 316 316 325 329 322 323 324 316 311 313 308 312 321 327 324 303 315 333 314 316 300 303 316 321 323 322 315 314 315 327 326 324 324 319 315 312 308 309 304 299 290 286 281 281 284 285 283 273 232 229 230 230 228 226 224 223 225 230 233 236 241 248 253 243 221 198 177 159 161 162 169 173 171 167 165 166 163 160 147 136
70 54 32 9 333 311 317 316 319 320 321 322 317 297 296 311 320 312 324 315 328 329 308 326 319 329 322 324 319 293 323 324 321 337 336 335 335 331 326 324 322 318 317 318 308 288 266 266 267 280 279 283 281 254 233 222 218 225 232 235 234 231 231 224 227 232 239 243 224 188 181 162 174 169 168 169 172 168 166 168 168 162 163 162 161
73 52 33 1 315 313 324 321 321 322 318 320 327 327 318 332 339 334 322 336 339 337 338 326 335 334 329 325 329 341 335 333 336 341 342 342 344 343 342 342 343 345 341 332 316 274 265 250 257 272 280 278 281 279 261 229 225 224 228 228 231 234 232 234 232 232 238 232 203 181 175 171 169 176 171 169 170 171 172 169 168 165 163 170 167
82 65 34 348 314 325 321 317 320 316 309 311 320 323 325 327 340 352 350 344 342 340 340 340 341 344 345 333 334 347 344 344 347 350 350 351 353 355 355 350 357 0 1 352 4 16 4 357 346 334 328 322 310 296 280 267 246 236 235 236 230 233 235 237 234 227 230 219 201 187 173 171 170 176 178 173 170 169 171 172 165 167 170 172 170
93 79 37 311 305 312 304 307 311 318 315 311 312 318 318 327 329 335 346 350 343 339 340 343 344 346 348 348 347 345 351 354 356 358 358 358 358 358 360 352 4 10 11 22 23 9 1 359 353 352 349 342 344 338 332 316 287 261 260 255 249 238 239 243 236 230 220 207 191 179 173 174 173 177 177 175 170 167 166 168 168 171 174 174 172
102 87 29 307 301 311 310 302 313 309 312 317 324 314 322 337 337 329 330 337 343 346 344 345 346 347 350 351 355 2 359 358 0 2 4 2 360 358 2 356 7 16 19 25 14 5 357 356 355 352 350 344 339 336 331 333 329 314 281 266 267 262 251 253 248 230 215 201 188 181 178 176 173 174 177 172 169 168 170 172 175 172 171 171 170
115 131 217 272 305 303 302 301 313 309 297 308 303 315 328 337 332 324 325 329 337 341 344 348 347 345 348 351 358 5 3 2 3 4 8 8 4 358 1 354 14 19 24 19 10 360 354 350 351 349 348 349 345 337 337 332 328 329 325 305 273 267 264 263 254 229 209 193 188 180 176 176 171 172 174 175 174 168 171 175 170 168 170 173 168
100 47 331 314 285 284 297 313 304 297 299 312 315 333 337 339 338 336 337 333 333 332 329 332 339 345 351 350 360 4 2 0 3 6 9 11 10 1 359 13 13 357 9 5 3 356 351 350 343 344 340 341 340 340 333 327 329 329 324 324 313 281 264 258 254 229 198 186 182 177 176 174 175 176 175 174 170 170 175 174 173 171 172 174 169
84 80 301 274 284 276 309 287 304 292 293 312 319 334 336 343 344 338 331 328 322 323 323 331 328 332 349 351 359 2 358 358 3 6 8 13 14 12 8 359 2 3 360 353 354 354 355 344 339 335 329 327 332 336 336 333 332 321 320 320 321 308 276 259 257 236 193 182 180 176 175 177 177 177 176 175 176 176 177 176 175 177 174 169 165
106 97 276 247 212 309 303 297 284 313 347 344 333 345 351 348 342 340 339 333 327 326 325 324 330 337 349 341 353 358 356 357 360 6 10 9 12 16 7 355 348 352 0 358 356 352 358 355 339 318 322 328 330 328 331 334 333 329 325 325 316 315 301 276 257 252 210 181 176 175 177 177 178 178 175 175 179 180 178 178 178 174 175 170 164
104 151 248 201 151 325 308 295 319 6 331 344 348 355 351 353 355 346 341 336 334 334 331 336 341 345 347 340 349 360 350 351 0 9 9 8 7 8 4 357 344 351 0 357 359 358 357 355 355 353 347 345 343 337 334 329 338 339 335 328 327 321 318 294 262 264 253 195 175 173 177 177 178 180 180 180 178 179 178 177 174 172 174 172 169
85 256 281 39 138 164 265 298 328 353 355 2 1 5 5 359 356 352 348 337 331 333 333 334 341 344 340 321 337 358 353 1 5 3 0 2 3 5 0 350 348 340 355 357 355 358 357 356 353 350 348 348 346 345 346 342 335 335 340 334 328 329 333 334 309 260 271 245 183 178 178 177 179 182 183 180 180 177 176 174 176 173 173 176 183
85 39 313 69 36 343 353 344 6 10 2 7 5 9 2 7 359 348 337 335 335 334 333 338 340 338 333 319 351 3 359 358 357 358 359 2 3 2 5 1 352 336 344 354 355 355 353 354 351 352 349 348 347 346 347 345 345 336 337 345 340 331 328 328 335 328 295 256 227 183 182 181 179 183 184 185 182 180 177 174 176 177 179 181 184
91 112 326 343 70 17 350 40 19 25 6 7 9 6 5 355 347 342 335 335 331 331 336 334 330 332 327 346 360 7 4 352 350 355 360 1 359 358 356 355 341 330 342 351 352 353 352 350 351 351 350 348 347 347 347 348 347 347 346 344 343 334 323 323 326 335 336 321 264 215 195 186 183 181 187 188 184 181 181 178 177 177 180 183 176
115 121 141 303 342 305 37 42 25 13 6 11 14 11 7 358 348 344 344 337 332 333 333 334 332 333 335 350 357 3 3 346 348 350 356 360 359 359 343 342 353 350 343 344 349 350 350 349 350 352 351 350 349 349 349 350 351 348 346 345 343 338 333 330 332 329 331 327 317 262 213 198 188 190 189 184 180 182 179 180 178 178 179 178 176
134 140 184 184 122 44 56 21 12 30 24 29 17 11 12 5 352 345 339 330 330 335 338 338 335 337 339 346 353 358 356 349 349 351 351 356 357 353 355 354 351 349 345 339 341 348 348 348 348 349 353 350 350 348 349 348 345 345 343 344 341 341 336 327 325 332 329 320 314 307 262 206 196 195 191 184 180 179 180 180 182 181 179 175 175
123 138 145 120 79 57 59 34 37 31 28 27 22 12 13 4 351 350 342 337 335 335 338 335 332 338 336 343 349 353 352 348 348 350 348 350 352 353 355 347 328 348 354 349 340 347 349 350 349 348 351 353 351 350 349 349 348 346 346 344 345 341 338 332 325 314 316 316 305 301 289 232 204 195 189 183 182 182 181 180 180 181 179 178 174
126 131 131 115 94 72 49 19 51 32 34 31 23 13 13 11 360 347 344 339 331 336 337 337 340 338 341 344 348 346 346 344 345 345 346 346 345 348 341 323 333 350 350 345 334 342 350 352 350 350 352 355 354 354 353 351 352 351 348 348 349 346 343 334 327 317 303 290 296 286 275 246 210 201 191 187 184 184 184 182 182 179 178 178 176
136 140 122 117 98 81 67 33 49 46 35 32 23 15 6 6 354 346 340 330 332 337 337 340 340 341 342 340 341 342 343 341 341 341 341 344 345 343 344 335 317 342 353 349 336 341 351 352 353 351 351 355 354 355 354 354 354 355 354 353 356 350 340 333 328 327 318 307 289 286 268 246 201 199 197 192 190 187 187 185 182 180 179 178 184
129 128 118 105 104 95 79 63 56 57 30 22 20 20 8 1 348 347 336 333 336 337 344 340 343 346 345 343 341 338 337 338 336 338 338 338 340 340 341 331 326 326 343 352 347 344 351 354 353 351 349 355 357 356 357 357 356 358 359 358 358 360 357 351 350 350 345 333 314 293 279 201 174 172 187 191 195 195 188 185 181 180 183 180 180
127 122 116 110 111 102 98 69 60 50 35 21 12 15 352 355 349 342 334 329 330 338 341 338 342 340 341 340 339 335 336 334 331 331 336 338 339 340 339 334 331 317 307 325 346 347 351 353 351 350 350 355 1 359 359 358 360 0 2 2 3 6 6 6 6 5 360 353 350 349 351 17 57 113 153 162 169 171 177 175 178 180 179 179 177
136 131 125 122 119 111 108 84 89 59 26 28 11 359 341 352 337 333 320 319 321 332 336 343 339 338 339 337 335 335 331 331 335 339 339 337 337 339 339 338 333 329 326 318 342 344 348 351 351 350 350 351 3 1 1 360 2 3 4 4 6 9 12 13 14 10 8 9 6 5 9 23 32 31 32 55 123 148 152 147 151 153 157 160 165
134 134 131 126 127 137 129 111 119 95 3 27 18 339 339 339 332 330 327 325 327 334 340 346 344 337 332 335 338 337 338 337 337 335 333 333 336 337 339 339 335 329 344 340 339 342 344 350 351 351 352 349 1 5 4 3 3 4 5 7 10 13 15 16 16 15 15 14 12 12 14 26 33 39 35 33 35 48 59 86 123 151 155 156 159
146 141 134 137 140 141 125 117 115 176 12 305 317 340 332 329 321 323 324 325 324 326 329 340 339 332 331 326 328 329 329 329 328 327 327 331 333 334 334 340 325 328 342 345 343 340 347 349 352 351 352 349 356 9 6 6 5 5 7 11 13 15 17 21 20 17 17 17 21 20 22 23 34 35 32 29 35 41 44 47 49 49 73 121 149